TimeMST,TemperatureF,Dew PointF,Humidity,Sea Level PressureIn,VisibilityMPH,Wind Direction,Wind SpeedMPH,Gust SpeedMPH,PrecipitationIn,Events,Conditions,WindDirDegrees,DateUTC
12:54 AM,27.0,19.0,72,29.86,10.0,SSW,6.9,-,N/A,,Scattered Clouds,210,2012-02-19 07:54:00
1:54 AM,28.0,17.1,63,29.85,10.0,SW,10.4,-,N/A,,Overcast,230,2012-02-19 08:54:00
2:54 AM,23.0,16.0,74,29.86,10.0,SW,10.4,-,N/A,,Clear,220,2012-02-19 09:54:00
3:54 AM,23.0,14.0,68,29.86,10.0,SW,12.7,-,N/A,,Clear,220,2012-02-19 10:54:00
6:54 AM,24.1,12.0,60,29.86,10.0,SW,12.7,-,N/A,,Clear,220,2012-02-19 13:54:00
7:54 AM,21.9,12.9,68,29.87,10.0,SSW,11.5,-,N/A,,Clear,210,2012-02-19 14:54:00
8:54 AM,28.9,12.9,51,29.84,10.0,SW,15.0,-,N/A,,Clear,220,2012-02-19 15:54:00
10:54 AM,35.1,10.9,37,29.81,10.0,WSW,18.4,-,N/A,,Clear,250,2012-02-19 17:54:00
11:54 AM,36.0,10.0,34,29.78,10.0,West,9.2,19.6,N/A,,Clear,270,2012-02-19 18:54:00
12:54 PM,37.0,9.0,31,29.76,10.0,West,15.0,19.6,N/A,,Clear,270,2012-02-19 19:54:00
1:54 PM,37.9,9.0,30,29.75,10.0,WNW,13.8,-,N/A,,Partly Cloudy,300,2012-02-19 20:54:00
2:54 PM,37.9,10.0,32,29.76,10.0,NW,8.1,19.6,N/A,,Overcast,320,2012-02-19 21:54:00
3:54 PM,36.0,12.0,37,29.77,10.0,NW,9.2,19.6,N/A,,Mostly Cloudy,320,2012-02-19 22:54:00
4:54 PM,35.1,12.9,40,29.78,10.0,NW,10.4,-,N/A,,Mostly Cloudy,310,2012-02-19 23:54:00
5:54 PM,30.9,12.9,47,29.81,10.0,WNW,6.9,-,N/A,,Scattered Clouds,290,2012-02-20 00:54:00
6:54 PM,30.0,14.0,51,29.83,10.0,West,9.2,-,N/A,,Mostly Cloudy,270,2012-02-20 01:54:00
8:54 PM,26.1,15.1,63,29.83,10.0,SW,11.5,-,N/A,,Clear,230,2012-02-20 03:54:00
9:54 PM,28.0,15.1,58,29.83,10.0,SW,13.8,-,N/A,,Overcast,230,2012-02-20 04:54:00
10:54 PM,27.0,15.1,61,29.84,10.0,SW,11.5,-,N/A,,Overcast,220,2012-02-20 05:54:00
11:54 PM,26.1,14.0,60,29.85,10.0,SW,13.8,-,N/A,,Clear,230,2012-02-20 06:54:00